Date,TemperatureHighF,TemperatureAvgF,TemperatureLowF,DewpointHighF,DewpointAvgF,DewpointLowF,HumidityHigh,HumidityAvg,HumidityLow,PressureMaxIn,PressureMinIn,WindSpeedMaxMPH,WindSpeedAvgMPH,GustSpeedMaxMPH,PrecipitationSumIn
2013-4-1,83.3,67.3,58.5,67.5,58.3,-99.9,100,79,43,30.00,29.88,5,2,10,0.30
2013-4-2,89.0,69.6,57.9,67.3,55.0,-99.9,100,69,29,29.97,29.85,7,1,12,0.00
2013-4-3,69.6,63.3,60.2,67.1,62.2,-99.9,100,97,78,30.15,29.94,5,1,10,0.95
2013-4-4,72.7,63.1,59.0,67.8,60.5,-99.9,100,94,68,30.27,30.12,4,1,10,0.83
2013-4-5,83.7,68.7,59.3,68.8,55.7,-99.9,100,70,33,30.30,30.21,8,2,14,0.00
2013-4-6,67.3,60.9,58.5,61.7,58.7,-99.9,100,95,75,30.27,30.12,3,0,5,0.00
2013-4-7,86.4,66.1,56.2,67.2,57.3,-99.9,100,78,40,30.15,30.06,6,1,10,0.00
2013-4-8,83.6,67.3,55.1,68.1,56.2,-99.9,100,74,41,30.18,30.06,6,1,10,0.00
2013-4-9,81.7,64.3,58.1,67.7,58.2,-99.9,100,86,47,30.21,30.12,6,1,9,0.04
2013-4-10,83.0,67.4,55.3,70.3,56.7,-99.9,100,75,40,30.15,30.06,5,1,11,0.00
2013-4-11,89.0,68.5,53.5,65.9,55.6,-99.9,100,71,30,30.18,30.06,6,1,10,0.00
2013-4-12,84.5,69.9,57.9,70.1,58.0,-99.9,100,72,39,30.18,30.09,5,2,12,0.00
2013-4-13,84.6,68.5,56.3,68.6,57.2,-99.9,100,74,41,30.09,29.88,6,2,12,0.00
2013-4-14,90.1,70.7,55.9,68.8,57.6,-99.9,100,71,35,29.91,29.77,5,1,8,0.00
2013-4-15,93.7,69.5,56.5,67.0,56.9,-99.9,100,73,28,29.83,29.65,4,1,7,0.00
2013-4-16,76.9,63.7,61.3,67.6,55.8,-99.9,100,85,57,29.88,29.74,7,2,11,0.08
2013-4-17,80.3,65.5,55.8,66.9,56.8,-99.9,100,80,45,29.91,29.83,5,1,10,0.00
2013-4-18,84.7,67.1,57.9,67.5,57.7,-99.9,100,78,40,29.85,29.77,5,1,10,0.00
2013-4-19,74.2,62.9,55.6,59.0,45.4,-99.9,100,60,32,29.85,29.77,7,3,13,0.00
2013-4-20,61.9,56.6,55.9,61.9,52.2,-99.9,100,90,48,29.91,29.71,6,3,11,1.11
2013-4-21,79.7,60.8,49.6,57.8,51.6,-99.9,100,77,33,29.91,29.80,6,1,8,0.00
2013-4-22,84.8,63.4,55.8,60.7,49.6,-99.9,100,71,29,29.80,29.68,6,1,9,0.00
2013-4-23,83.6,63.9,49.2,56.7,47.5,-99.9,100,65,29,29.91,29.74,6,2,11,0.00
2013-4-24,83.8,63.3,50.4,59.2,49.0,-99.9,100,68,26,30.00,29.88,5,1,10,0.00
2013-4-25,81.9,62.6,49.3,56.4,49.8,-99.9,100,70,31,30.09,29.94,4,1,8,0.00
2013-4-26,87.1,65.3,50.4,54.9,47.5,-99.9,100,60,25,30.09,30.00,5,1,10,0.00
2013-4-27,88.5,65.2,50.0,61.4,50.5,-99.9,100,68,28,30.09,29.94,4,1,7,0.00
2013-4-28,90.0,70.0,56.0,56.6,45.8,-99.9,97,48,21,30.03,29.94,6,2,12,0.00
2013-4-29,89.8,69.2,55.4,64.3,52.7,-99.9,100,61,27,30.15,29.97,6,1,9,0.00
2013-4-30,81.3,68.6,62.7,70.5,63.4,-99.9,100,88,57,30.15,30.06,5,2,8,0.00